Location: Unspecified
(0.0000°N, 0.0000°E)
Time: 04:37:37

YUBILEINY - Pass Details

Date: 10 December 2017
Orbit: 1478 x 1509 km, 82.5° (Epoch: 20 March)

Event Time Altitude Azimuth Distance (km) Brightness Sun altitude
Rises 03:13:22 0° 184° (S) 4,610 ? -36.2°
Reaches altitude 10° 03:16:14 10° 183° (S) 3,632 ? -35.5°
Maximum altitude 03:25:00 90° 268° (W) 1,498 ? -33.6°
Enters shadow 03:27:22 55° 2° (N) 1,749 ? -33.1°
